Location: Pinon Hills
(34.4429°N, 117.6403°W)
Time: 08:15:35
(UTC-08:00)

Daily predictions for brighter satellites

Satellite Brightness Start Highest point End
(mag) Time Altitude Azimuth Time Altitude Azimuth Time Altitude Azimuth
Cosmos 2228 Rocket 4.4 17:35:00 10° NNW 17:39:14 45° W 17:43:29 10° SSW
CZ-2C R/B 3.5 17:41:23 10° S 17:46:14 51° W 17:50:58 10° NNW
Cosmos 1300 2.7 17:43:30 10° N 17:47:21 87° W 17:51:11 10° S
Cosmos 1151 Rocket 3.2 17:45:17 10° N 17:49:34 79° W 17:53:52 10° S
Cosmos 2279 Rocket 4.0 17:44:45 10° N 17:50:55 62° E 17:57:04 10° SSE
Cosmos 2237 Rocket 3.2 17:45:42 10° SW 17:51:06 48° WNW 17:56:34 10° N
SL-14 R/B 4.0 17:49:08 10° SSW 17:52:58 56° W 17:56:53 10° N
Cosmos 1340 Rocket 2.7 17:50:41 10° S 17:54:37 84° E 17:58:33 10° N
Lacrosse 4 Rocket 3.4 17:54:39 10° NE 17:54:54 10° NE 17:54:54 10° NE
Cosmos 1484 Rocket 2.7 17:51:29 10° SSE 17:55:23 83° E 17:59:23 10° N
Meteor 1-27 4.3 17:49:56 10° N 17:55:46 72° E 18:01:35 10° SSE
Transit 2A Rocket 4.4 17:52:24 10° NNW 17:56:42 70° ENE 18:01:01 10° SSE
Cosmos 1184 Rocket 3.8 17:55:15 10° SSE 17:58:07 27° E 18:01:00 10° NNE
SL-16 R/B 2.2 17:53:08 10° SSW 17:58:47 79° ESE 18:04:27 10° NNE
Cosmos 1805 Rocket 3.5 17:56:12 10° S 18:00:36 67° E 18:05:03 10° NNE
ALOS 3.7 17:58:54 10° ESE 18:01:52 17° ENE 18:04:49 10° NNE
Cosmos 1125 Rocket 4.2 17:57:29 10° NNW 18:02:34 57° WSW 18:07:38 10° S
SKYMED 2 3.8 18:01:06 10° N 18:05:27 73° WNW 18:09:45 10° SSW
Nadezhda 4 Rocket 4.2 18:00:33 10° SSE 18:06:33 51° E 18:12:37 10° NNE
Cosmos 2058 3.8 18:04:50 10° SSW 18:08:49 50° W 18:12:49 10° N
DMSP B5D1-3 4.4 18:04:06 10° NNE 18:09:13 82° ESE 18:14:19 10° S
USA 229 DEB 3.8 18:04:04 10° SSW 18:10:42 56° ESE 18:17:13 11° NE
USA 229 3.8 18:04:10 10° S 18:10:48 55° ESE 18:17:16 11° NE
Meteor 1-28 Rocket 3.1 18:08:11 10° N 18:11:55 87° W 18:15:37 10° SSW
Cosmos 1461 3.8 18:08:54 10° SW 18:12:59 47° WNW 18:16:57 10° NNE
Cosmos 1869 4.4 18:10:18 10° NNE 18:13:31 22° ENE 18:16:43 10° SE
Iridium 4 Rocket 3.9 18:10:20 10° SE 18:14:16 29° E 18:17:59 10° NNE
Cosmos 2297 3.7 18:09:12 10° NNW 18:14:52 64° ENE 18:20:32 10° SSE
Sich 1 3.0 18:11:14 10° S 18:15:36 62° E 18:19:59 10° NNE
Meteor 2-10 4.3 18:10:28 10° NNW 18:15:36 74° W 18:20:53 10° S
BREEZE-M DEB (TANK) 3.9 18:12:03 10° NW 18:16:57 37° WSW 18:19:36 10° SSE
Cosmos 2180 Rocket 4.4 18:11:50 10° N 18:18:01 86° E 18:24:17 10° S
Cosmos 1538 Rocket 4.1 18:14:43 10° SSW 18:20:00 85° WNW 18:25:22 10° NNE
Cosmos 1633 Rocket 3.0 18:20:17 10° S 18:24:39 69° E 18:29:02 10° NNE
Cosmos 923 Rocket 4.2 18:22:52 10° S 18:27:51 47° ESE 18:31:22 19° NE
Cosmos 1092 Rocket 4.1 18:21:52 10° SSE 18:28:00 55° E 18:34:10 10° NNE
Cosmos 1356 Rocket 3.6 18:25:38 10° SSW 18:29:35 70° W 18:33:35 10° N
FENGYUN 3A 4.2 18:25:02 10° SE 18:29:50 35° ENE 18:34:40 10° N
Coronas F rocket 1.2 18:27:46 10° S 18:29:43 52° SSE 18:29:43 52° SSE
FREGAT/IRIS 2.6 18:27:27 10° SSE 18:30:25 53° ENE 18:33:24 10° N
METEOR-M 4.0 18:26:56 10° SSE 18:32:15 74° ENE 18:37:36 10° N
Cosmos 1680 Rocket 3.9 18:29:50 10° S 18:34:41 41° ESE 18:36:44 28° NE
Cosmos 1943 4.3 18:33:18 10° SSE 18:37:08 24° ESE 18:37:08 24° ESE
Lacrosse 5 rocket 2.3 18:35:28 10° NW 18:39:11 45° SW 18:43:05 10° SSE
Aureole 1 Rocket 3.7 18:35:53 10° SSW 18:40:56 90° SE 18:47:45 10° NNE
OTV 4 3.3 18:39:10 10° WSW 18:41:00 15° SSW 18:42:48 10° S
Cosmos 1626 3.4 18:38:24 10° SSW 18:41:57 42° W 18:45:32 10° N
SL-19 R/B 4.4 18:36:29 10° SSE 18:42:16 55° ENE 18:47:46 10° N
NOAA 12 4.2 18:38:59 10° S 18:44:13 78° WSW 18:49:30 10° NNW
Cosmos 2195 Rocket 4.5 18:46:13 10° SSE 18:52:07 55° E 18:58:06 10° NNE
FengYun 1-2 T 4.1 18:54:51 10° SSE 19:00:23 74° ENE 19:05:54 10° N
SJ-6B 3.7 18:58:57 10° S 19:02:54 51° W 19:06:55 10° NNW
NOSS 3-1 (C) 3.5 18:57:34 10° S 19:02:58 47° ESE 19:03:11 47° ESE
Cosmos 1455 3.4 18:59:36 10° NNW 19:03:13 43° W 19:06:51 10° SSW
Cosmos 1603 3.7 18:57:51 10° SSW 19:03:28 82° WNW 19:06:32 28° NNE
Resurs 01 Rocket 1.8 18:59:12 10° SSE 19:04:24 57° NNE 19:08:04 10° N
Tiangong 1 3.0 19:04:36 10° WSW 19:06:08 27° WSW 19:06:08 27° WSW
Cosmos 2112 Rocket 3.8 19:05:37 10° SSW 19:10:48 80° ESE 19:11:30 66° NE
Cosmos 1933 Rocket 3.6 19:07:05 10° S 19:11:30 78° W 19:12:11 61° NNW
USA 215 3.2 19:12:20 48° ESE 19:14:09 69° NE 19:20:40 10° NW
Cosmos 1655 Rocket 3.9 19:15:01 10° S 19:21:21 72° E 19:22:36 57° NE
Lacrosse 4 Rocket 3.6 19:30:14 10° NNW 19:31:21 18° NW 19:31:21 18° NW
ALOS 3.5 19:34:33 10° SSW 19:38:55 41° W 19:43:20 10° NNW
Cosmos 2369 Rocket 4.4 19:38:02 10° N 19:38:49 14° N 19:38:49 14° N
Spot 2 Rocket 4.5 19:39:24 10° S 19:44:11 44° W 19:49:01 10° NNW
BREEZE-M DEB (TANK) 4.0 19:44:10 10° SW 19:48:43 87° NW 19:50:21 63° NE
CZ-3A R/B 4.2 20:18:39 10° WNW 20:32:48 13° SSE 20:34:48 10° SSE
H-2A ROCKET BODY 4.1 20:21:01 10° W 20:28:19 30° WSW 20:28:19 30° WSW
